Temp
-28 -28 -28 -28 -27 -27 -27 -26 -26 -25 -25 -25 -24 -24 -23 -23 -23 -22 -22 -22 -22 -21 -21 -20 -19 -18 -18 -18 -18 -17 -17 -17 -17 -17 -16 -16 -16 -16 -16 -16 -17 -17 -17 -17 -17 -18 -18 -18 -19 -19 -20 -20 -21 -21
-28 -28 -28 -28 -27 -27 -27 -26 -26 -26 -25 -25 -24 -24 -23 -23 -23 -23 -23 -22 -22 -21 -20 -20 -19 -18 -18 -18 -18 -17 -17 -17 -17 -17 -16 -16 -16 -16 -16 -17 -17 -17 -17 -17 -18 -18 -18 -19 -19 -20 -20 -21 -22 -23
-28 -28 -28 -28 -27 -27 -27 -26 -26 -26 -25 -25 -24 -24 -23 -23 -23 -23 -23 -23 -22 -21 -21 -20 -19 -19 -18 -18 -18 -17 -17 -17 -17 -17 -17 -16 -16 -16 -17 -17 -17 -17 -17 -17 -17 -18 -19 -19 -19 -20 -21 -23 -24 -24
-28 -28 -28 -28 -27 -27 -27 -26 -26 -26 -25 -25 -24 -24 -23 -23 -22 -23 -23 -23 -22 -22 -20 -20 -19 -19 -18 -18 -18 -18 -17 -17 -17 -17 -17 -16 -16 -17 -17 -17 -17 -17 -17 -17 -18 -18 -19 -19 -20 -22 -23 -24 -24 -25
-28 -28 -28 -28 -27 -27 -27 -26 -26 -26 -25 -25 -24 -24 -23 -23 -23 -23 -23 -23 -23 -21 -19 -20 -19 -19 -18 -18 -18 -18 -18 -17 -17 -17 -17 -16 -17 -17 -17 -17 -17 -17 -17 -17 -18 -19 -19 -20 -21 -23 -24 -24 -24 -25
-28 -28 -28 -28 -27 -27 -27 -27 -26 -26 -25 -25 -24 -24 -24 -23 -23 -23 -23 -23 -22 -21 -19 -19 -20 -19 -18 -18 -18 -18 -17 -17 -17 -17 -17 -17 -17 -17 -17 -17 -17 -17 -17 -17 -18 -19 -20 -21 -23 -24 -24 -24 -25 -25
-28 -27 -27 -27 -27 -27 -27 -27 -26 -26 -25 -25 -24 -24 -24 -23 -23 -23 -23 -23 -22 -20 -20 -20 -19 -19 -18 -18 -18 -17 -17 -17 -17 -17 -17 -17 -17 -17 -17 -17 -17 -17 -17 -18 -18 -19 -21 -23 -23 -24 -24 -24 -25 -25
-28 -28 -28 -27 -27 -27 -27 -27 -26 -26 -25 -25 -25 -24 -24 -23 -23 -23 -23 -23 -23 -21 -22 -20 -20 -20 -19 -19 -18 -18 -17 -17 -17 -17 -17 -17 -17 -17 -17 -17 -17 -17 -18 -18 -19 -20 -22 -22 -23 -23 -24 -24 -25 -25
-29 -28 -28 -27 -27 -27 -27 -27 -26 -26 -25 -25 -25 -24 -24 -23 -23 -23 -23 -23 -22 -21 -21 -20 -20 -20 -19 -19 -18 -18 -17 -17 -17 -17 -17 -17 -17 -17 -16 -17 -17 -17 -18 -18 -20 -21 -22 -22 -23 -23 -23 -24 -24 -24
-29 -29 -29 -28 -28 -27 -27 -27 -26 -26 -25 -25 -25 -25 -24 -24 -23 -23 -22 -23 -23 -21 -20 -20 -20 -20 -19 -19 -18 -18 -18 -17 -17 -17 -17 -17 -17 -17 -16 -17 -17 -17 -18 -19 -20 -21 -21 -22 -22 -23 -23 -23 -24 -24
-29 -30 -30 -29 -29 -28 -28 -27 -27 -26 -26 -25 -25 -25 -25 -24 -23 -23 -23 -23 -23 -21 -20 -20 -20 -20 -20 -19 -18 -18 -18 -17 -17 -17 -17 -17 -17 -17 -16 -16 -17 -18 -18 -19 -20 -20 -21 -22 -22 -22 -23 -23 -23 -23
-29 -30 -30 -30 -30 -30 -29 -28 -27 -26 -26 -25 -25 -25 -25 -24 -24 -23 -22 -22 -22 -22 -21 -21 -21 -21 -20 -19 -18 -18 -18 -17 -17 -17 -16 -17 -17 -16 -16 -16 -17 -17 -18 -18 -20 -20 -20 -21 -21 -22 -22 -22 -23 -23
-30 -30 -30 -30 -30 -30 -30 -29 -27 -27 -26 -26 -25 -25 -25 -25 -24 -23 -22 -22 -22 -22 -22 -21 -21 -21 -20 -19 -18 -18 -18 -17 -17 -16 -16 -17 -16 -16 -16 -17 -17 -17 -17 -18 -18 -19 -20 -20 -21 -21 -22 -22 -22 -22
-30 -30 -31 -31 -31 -31 -31 -30 -28 -28 -27 -26 -26 -25 -25 -25 -24 -23 -22 -22 -22 -22 -22 -21 -21 -21 -20 -19 -18 -18 -17 -17 -16 -16 -17 -17 -16 -16 -16 -17 -17 -17 -16 -17 -18 -19 -19 -20 -21 -21 -21 -22 -22 -22
-31 -31 -31 -31 -31 -31 -32 -31 -30 -28 -27 -27 -26 -25 -25 -24 -24 -23 -23 -22 -22 -22 -22 -22 -21 -21 -20 -19 -18 -18 -17 -16 -16 -17 -17 -17 -16 -16 -16 -17 -16 -16 -16 -16 -17 -18 -19 -20 -20 -21 -21 -21 -22 -22
-32 -32 -32 -32 -32 -32 -32 -32 -31 -29 -28 -27 -26 -25 -25 -25 -24 -24 -23 -22 -22 -22 -23 -22 -21 -20 -19 -18 -18 -18 -17 -16 -17 -17 -17 -16 -16 -16 -17 -16 -16 -16 -16 -16 -17 -18 -19 -19 -20 -20 -21 -21 -21 -21
-33 -33 -33 -33 -33 -33 -33 -32 -32 -30 -28 -26 -26 -25 -25 -25 -24 -24 -23 -23 -22 -22 -23 -22 -21 -20 -19 -18 -17 -17 -17 -17 -17 -17 -17 -16 -15 -16 -16 -16 -16 -15 -16 -16 -16 -17 -18 -19 -20 -20 -20 -21 -21 -21
-33 -34 -34 -34 -34 -34 -34 -34 -33 -30 -27 -26 -26 -26 -25 -25 -25 -24 -23 -23 -22 -22 -22 -22 -21 -20 -19 -18 -18 -17 -18 -17 -17 -17 -17 -16 -15 -16 -16 -16 -15 -16 -16 -16 -16 -17 -18 -19 -19 -20 -20 -20 -21 -21
-34 -33 -34 -34 -34 -34 -34 -34 -33 -31 -29 -28 -27 -26 -26 -25 -25 -25 -24 -23 -22 -22 -22 -21 -21 -20 -19 -19 -19 -18 -18 -17 -17 -17 -17 -16 -15 -16 -16 -15 -15 -15 -15 -16 -16 -17 -18 -18 -19 -19 -20 -20 -20 -21
-34 -34 -34 -34 -34 -34 -34 -33 -33 -33 -31 -30 -29 -28 -27 -26 -25 -24 -23 -23 -22 -21 -21 -21 -20 -21 -20 -20 -19 -18 -18 -17 -17 -17 -16 -15 -16 -16 -16 -15 -15 -15 -16 -16 -16 -16 -16 -17 -18 -18 -19 -20 -20 -21
-34 -34 -34 -33 -33 -33 -34 -33 -33 -33 -32 -32 -31 -29 -27 -26 -25 -24 -23 -23 -22 -21 -20 -21 -21 -21 -20 -19 -19 -18 -18 -17 -17 -17 -16 -15 -16 -16 -16 -15 -15 -15 -15 -15 -16 -16 -17 -17 -18 -18 -19 -19 -20 -20
-34 -34 -34 -34 -34 -34 -34 -33 -33 -33 -32 -32 -31 -30 -27 -26 -25 -24 -23 -22 -21 -21 -21 -21 -21 -21 -19 -19 -19 -18 -18 -17 -17 -17 -16 -16 -16 -15 -15 -15 -15 -15 -15 -16 -16 -16 -17 -17 -17 -17 -18 -19 -19 -20
-34 -34 -34 -34 -34 -34 -33 -33 -33 -33 -32 -32 -31 -30 -27 -26 -25 -24 -23 -22 -21 -21 -21 -21 -21 -20 -19 -19 -19 -18 -18 -17 -17 -17 -16 -16 -16 -16 -15 -16 -15 -15 -15 -15 -16 -16 -16 -17 -17 -17 -17 -18 -19 -19
-34 -34 -34 -34 -33 -33 -33 -33 -33 -32 -32 -31 -31 -30 -28 -26 -25 -23 -22 -21 -21 -21 -21 -21 -20 -20 -19 -20 -19 -18 -18 -17 -17 -16 -16 -16 -16 -16 -15 -16 -16 -16 -15 -16 -16 -16 -16 -16 -17 -17 -17 -18 -18 -19
-34 -34 -34 -34 -33 -33 -33 -33 -33 -32 -31 -31 -30 -29 -28 -26 -25 -23 -21 -21 -22 -21 -20 -20 -20 -19 -19 -20 -19 -18 -18 -17 -17 -17 -16 -16 -16 -16 -16 -15 -15 -16 -15 -15 -16 -16 -16 -16 -16 -17 -17 -17 -18 -19
-34 -34 -33 -33 -33 -33 -33 -33 -32 -31 -31 -30 -30 -28 -28 -26 -24 -22 -21 -21 -21 -21 -20 -20 -19 -20 -20 -20 -19 -18 -18 -17 -17 -17 -16 -16 -16 -16 -16 -16 -15 -15 -15 -15 -16 -16 -16 -16 -16 -16 -17 -17 -18 -18
-34 -33 -33 -33 -33 -33 -33 -33 -32 -31 -30 -29 -29 -28 -27 -25 -23 -22 -22 -23 -22 -22 -21 -20 -20 -20 -20 -20 -19 -19 -18 -17 -17 -17 -16 -16 -16 -17 -16 -16 -16 -16 -16 -16 -16 -16 -16 -16 -16 -16 -17 -17 -17 -18
-33 -33 -34 -34 -33 -33 -33 -33 -32 -31 -30 -29 -29 -28 -27 -26 -25 -23 -23 -23 -22 -21 -21 -21 -21 -21 -20 -20 -19 -19 -18 -17 -17 -16 -16 -16 -17 -16 -16 -16 -16 -16 -15 -16 -16 -16 -16 -16 -16 -16 -16 -17 -17 -17
-34 -34 -34 -34 -33 -33 -33 -32 -31 -31 -30 -30 -29 -28 -26 -25 -25 -23 -23 -22 -21 -21 -20 -21 -21 -21 -20 -20 -19 -18 -17 -17 -16 -16 -16 -16 -16 -17 -17 -17 -16 -16 -16 -16 -15 -15 -16 -16 -16 -16 -16 -16 -17 -17
-34 -34 -34 -33 -33 -33 -32 -32 -31 -30 -30 -28 -27 -27 -25 -26 -25 -23 -22 -22 -21 -21 -21 -21 -21 -20 -20 -19 -18 -18 -17 -17 -17 -17 -16 -16 -17 -17 -17 -17 -17 -17 -17 -17 -16 -16 -16 -16 -17 -17 -17 -17 -17 -17
-34 -34 -34 -33 -33 -32 -32 -31 -30 -29 -28 -27 -26 -26 -25 -25 -24 -22 -22 -22 -21 -21 -21 -20 -19 -19 -19 -18 -18 -18 -17 -17 -17 -17 -16 -16 -17 -17 -17 -17 -17 -17 -17 -17 -17 -17 -16 -16 -16 -17 -17 -17 -17 -17
-34 -34 -33 -33 -32 -32 -30 -29 -28 -28 -27 -27 -26 -25 -24 -24 -23 -22 -22 -21 -21 -20 -20 -20 -19 -19 -19 -19 -18 -18 -18 -17 -17 -17 -16 -17 -17 -17 -17 -17 -16 -17 -17 -16 -16 -16 -16 -17 -17 -17 -17 -17 -17 -17
-34 -34 -34 -32 -30 -29 -28 -28 -28 -27 -26 -26 -25 -25 -25 -23 -22 -22 -21 -21 -21 -21 -20 -20 -20 -19 -19 -19 -18 -18 -17 -17 -17 -17 -17 -17 -16 -16 -17 -17 -17 -16 -16 -17 -17 -17 -17 -17 -17 -17 -17 -17 -17 -17
Height
5530 5532 5535 5539 5542 5545 5548 5551 5554 5556 5558 5560 5563 5566 5570 5576 5582 5589 5597 5604 5613 5621 5627 5634 5643 5652 5660 5667 5674 5681 5686 5691 5695 5699 5703 5705 5707 5709 5710 5710 5710 5709 5707 5704 5701 5698 5695 5689 5683 5678 5673 5666 5661 5655
5525 5527 5530 5534 5537 5540 5544 5547 5550 5553 5555 5557 5560 5564 5569 5574 5581 5588 5595 5602 5610 5618 5628 5632 5640 5649 5656 5665 5672 5677 5683 5688 5693 5697 5701 5703 5706 5707 5708 5708 5708 5707 5705 5702 5699 5694 5689 5683 5677 5672 5666 5659 5654 5649
5519 5522 5525 5529 5532 5535 5539 5543 5547 5550 5552 5555 5558 5562 5567 5573 5580 5586 5592 5600 5607 5615 5622 5630 5638 5647 5655 5662 5669 5675 5680 5685 5690 5694 5698 5701 5703 5705 5706 5706 5706 5704 5701 5698 5695 5690 5684 5679 5673 5666 5659 5654 5649 5645
5513 5516 5520 5523 5526 5530 5534 5539 5543 5546 5549 5552 5556 5560 5565 5571 5577 5583 5590 5598 5605 5613 5622 5629 5637 5645 5652 5660 5666 5672 5677 5683 5688 5692 5696 5699 5702 5703 5704 5705 5704 5702 5698 5694 5690 5685 5681 5676 5668 5661 5656 5651 5647 5643
5507 5510 5514 5517 5521 5525 5530 5534 5539 5543 5546 5550 5554 5559 5563 5568 5574 5580 5588 5595 5602 5613 5616 5627 5635 5642 5650 5657 5663 5669 5675 5681 5686 5691 5694 5697 5700 5702 5702 5703 5702 5698 5695 5691 5687 5683 5678 5671 5664 5659 5655 5651 5646 5641
5500 5503 5507 5511 5515 5519 5525 5529 5534 5539 5543 5548 5552 5556 5560 5565 5572 5579 5585 5592 5600 5610 5616 5626 5634 5640 5648 5654 5660 5666 5673 5679 5685 5689 5692 5696 5698 5701 5701 5701 5699 5696 5693 5689 5687 5681 5674 5668 5664 5661 5656 5651 5646 5642
5492 5495 5499 5504 5509 5513 5519 5524 5529 5535 5540 5545 5549 5554 5558 5563 5569 5576 5583 5589 5597 5608 5612 5622 5629 5638 5645 5651 5658 5665 5671 5677 5682 5686 5690 5694 5697 5700 5700 5699 5697 5695 5692 5689 5684 5678 5672 5669 5666 5663 5659 5655 5649 5645
5482 5486 5491 5496 5501 5506 5512 5518 5524 5529 5535 5541 5546 5551 5555 5561 5567 5573 5580 5586 5595 5604 5610 5619 5628 5636 5642 5649 5657 5663 5670 5675 5680 5684 5688 5693 5697 5698 5698 5697 5696 5694 5692 5688 5682 5676 5674 5673 5670 5667 5665 5661 5655 5652
5471 5476 5481 5486 5493 5498 5505 5511 5518 5524 5531 5537 5542 5548 5553 5558 5564 5570 5577 5584 5592 5602 5608 5616 5624 5634 5640 5648 5655 5662 5667 5673 5678 5682 5687 5693 5695 5697 5696 5696 5695 5694 5691 5686 5681 5678 5678 5677 5675 5674 5671 5668 5663 5661
5461 5466 5471 5477 5483 5489 5496 5503 5510 5517 5525 5532 5539 5545 5549 5555 5561 5568 5576 5582 5589 5598 5606 5615 5622 5631 5639 5646 5654 5661 5665 5671 5676 5681 5686 5690 5693 5694 5695 5695 5696 5694 5691 5686 5683 5683 5682 5681 5680 5681 5679 5676 5673 5672
5454 5459 5463 5468 5473 5479 5485 5494 5502 5511 5519 5526 5534 5540 5545 5551 5557 5565 5571 5578 5586 5594 5605 5613 5621 5630 5637 5644 5651 5657 5662 5668 5674 5680 5684 5689 5691 5692 5694 5695 5695 5694 5691 5688 5687 5687 5686 5685 5687 5687 5686 5684 5682 5680
5447 5452 5456 5461 5465 5469 5475 5484 5493 5503 5511 5519 5526 5534 5540 5547 5553 5561 5568 5575 5582 5592 5600 5610 5617 5625 5634 5641 5647 5654 5658 5665 5671 5677 5683 5687 5690 5692 5693 5695 5696 5695 5691 5691 5690 5690 5690 5690 5692 5692 5692 5691 5689 5687
5438 5442 5447 5452 5457 5460 5465 5472 5483 5493 5501 5510 5518 5527 5535 5542 5550 5557 5564 5572 5581 5589 5597 5604 5615 5622 5631 5638 5644 5651 5657 5664 5670 5676 5682 5686 5688 5690 5693 5695 5696 5695 5693 5694 5692 5691 5694 5695 5696 5697 5697 5696 5695 5693
5427 5432 5437 5443 5448 5452 5456 5463 5473 5483 5493 5502 5511 5521 5530 5538 5546 5553 5561 5569 5578 5587 5595 5602 5612 5620 5628 5635 5641 5648 5655 5662 5669 5676 5682 5684 5687 5689 5693 5695 5695 5695 5695 5695 5695 5694 5696 5698 5700 5701 5700 5700 5700 5699
5418 5422 5427 5433 5439 5444 5450 5455 5465 5475 5484 5495 5506 5516 5525 5533 5541 5547 5556 5565 5574 5584 5592 5600 5609 5617 5623 5631 5638 5645 5654 5660 5669 5676 5678 5681 5685 5689 5692 5694 5694 5696 5698 5697 5697 5697 5698 5700 5702 5703 5704 5704 5704 5704
5408 5411 5418 5424 5431 5437 5443 5449 5457 5467 5477 5489 5500 5510 5519 5527 5534 5541 5550 5561 5571 5581 5588 5598 5608 5613 5618 5626 5634 5642 5652 5661 5668 5671 5674 5679 5683 5688 5691 5693 5694 5696 5699 5699 5700 5700 5701 5702 5704 5705 5706 5707 5708 5708
5400 5407 5412 5419 5426 5433 5438 5445 5452 5461 5471 5482 5494 5503 5512 5520 5527 5535 5545 5557 5566 5575 5584 5594 5603 5607 5614 5621 5631 5641 5652 5658 5664 5668 5673 5677 5681 5687 5690 5692 5694 5698 5699 5701 5702 5702 5702 5704 5706 5707 5708 5709 5710 5711
5400 5405 5411 5417 5424 5430 5437 5442 5449 5455 5466 5478 5488 5496 5504 5512 5520 5530 5539 5550 5559 5569 5578 5588 5596 5602 5610 5621 5633 5646 5649 5655 5661 5665 5670 5674 5680 5685 5688 5690 5693 5698 5700 5702 5703 5704 5704 5706 5708 5709 5710 5710 5711 5712
5400 5406 5412 5418 5425 5431 5435 5441 5447 5453 5461 5471 5480 5488 5496 5504 5513 5522 5531 5543 5553 5563 5573 5580 5587 5595 5607 5625 5635 5640 5645 5650 5655 5660 5666 5672 5677 5682 5686 5689 5692 5697 5700 5702 5704 5705 5706 5707 5708 5710 5711 5711 5711 5712
5401 5407 5414 5421 5426 5430 5435 5440 5446 5452 5458 5465 5472 5479 5486 5495 5504 5515 5526 5537 5546 5555 5564 5572 5579 5593 5610 5622 5628 5634 5639 5645 5651 5657 5663 5668 5675 5679 5684 5688 5692 5696 5699 5701 5704 5705 5705 5707 5708 5710 5710 5711 5711 5711
5401 5407 5413 5417 5422 5428 5433 5439 5444 5450 5455 5460 5465 5471 5479 5489 5499 5509 5520 5529 5539 5549 5559 5568 5584 5597 5607 5614 5620 5626 5633 5641 5648 5653 5658 5665 5672 5676 5681 5685 5689 5693 5698 5701 5703 5705 5706 5707 5709 5710 5710 5710 5710 5710
5398 5403 5410 5415 5421 5426 5431 5436 5442 5448 5453 5457 5461 5465 5474 5484 5494 5505 5515 5522 5533 5546 5557 5571 5584 5594 5601 5608 5615 5622 5630 5636 5643 5649 5655 5663 5670 5674 5679 5684 5689 5693 5696 5700 5702 5704 5705 5707 5708 5708 5708 5708 5708 5709
5398 5402 5407 5413 5418 5423 5429 5434 5438 5444 5449 5453 5457 5461 5470 5480 5489 5498 5507 5519 5531 5543 5557 5570 5579 5588 5595 5604 5611 5618 5625 5632 5640 5646 5652 5659 5665 5670 5674 5680 5686 5691 5694 5698 5700 5701 5703 5704 5705 5706 5706 5707 5707 5707
5395 5400 5405 5410 5413 5418 5425 5430 5435 5440 5444 5450 5454 5459 5467 5476 5485 5492 5503 5516 5531 5543 5555 5566 5572 5582 5592 5599 5608 5613 5621 5628 5635 5642 5649 5656 5662 5669 5673 5676 5681 5686 5690 5693 5697 5699 5701 5702 5703 5704 5705 5705 5705 5705
5392 5396 5402 5405 5410 5417 5422 5427 5431 5436 5442 5445 5449 5455 5465 5471 5481 5489 5502 5517 5532 5542 5554 5561 5568 5578 5587 5596 5604 5610 5617 5625 5631 5638 5645 5651 5657 5663 5668 5673 5676 5680 5685 5690 5693 5696 5697 5699 5700 5701 5702 5702 5702 5702
5387 5392 5397 5402 5408 5414 5419 5423 5427 5431 5433 5436 5445 5454 5461 5469 5478 5489 5508 5524 5532 5543 5551 5559 5568 5576 5584 5591 5599 5607 5614 5621 5628 5635 5642 5649 5654 5659 5664 5670 5675 5680 5684 5687 5690 5692 5694 5696 5697 5697 5698 5699 5699 5699
5383 5388 5395 5402 5408 5412 5416 5419 5420 5423 5428 5436 5444 5451 5457 5465 5474 5489 5498 5505 5514 5525 5538 5551 5561 5570 5579 5588 5596 5602 5609 5617 5624 5631 5637 5643 5648 5654 5660 5665 5671 5674 5676 5680 5683 5687 5690 5692 5693 5694 5694 5694 5694 5695
5381 5390 5397 5402 5405 5408 5409 5412 5414 5420 5426 5432 5438 5444 5450 5461 5474 5483 5493 5502 5511 5518 5527 5537 5547 5561 5571 5581 5588 5595 5603 5611 5619 5626 5634 5641 5647 5652 5657 5660 5664 5668 5671 5674 5678 5681 5684 5687 5688 5689 5690 5691 5690 5689
5383 5390 5394 5397 5399 5401 5404 5407 5411 5416 5422 5425 5433 5439 5448 5457 5468 5477 5488 5496 5505 5515 5526 5534 5543 5553 5562 5571 5580 5588 5597 5605 5614 5623 5630 5637 5644 5649 5654 5657 5660 5663 5669 5672 5675 5678 5680 5682 5684 5685 5685 5685 5685 5685
5381 5385 5389 5392 5394 5397 5401 5404 5410 5414 5417 5423 5432 5440 5449 5458 5464 5471 5481 5492 5504 5516 5524 5532 5539 5547 5556 5566 5576 5585 5593 5603 5611 5619 5627 5634 5639 5642 5646 5651 5656 5660 5664 5667 5670 5673 5675 5677 5679 5680 5681 5681 5681 5680
5377 5380 5384 5387 5389 5394 5399 5402 5408 5414 5422 5430 5437 5446 5451 5458 5466 5476 5486 5495 5504 5514 5523 5533 5540 5547 5555 5563 5574 5584 5593 5601 5608 5615 5623 5628 5633 5638 5643 5647 5650 5653 5656 5659 5662 5666 5669 5671 5673 5675 5675 5676 5675 5675
5373 5376 5380 5382 5387 5392 5396 5404 5411 5419 5426 5432 5438 5445 5454 5459 5467 5477 5489 5499 5509 5517 5524 5532 5539 5548 5558 5565 5573 5580 5588 5596 5603 5610 5616 5622 5628 5634 5638 5641 5644 5647 5652 5656 5659 5661 5664 5666 5668 5668 5669 5669 5670 5669
5367 5370 5373 5376 5386 5395 5403 5407 5414 5420 5426 5432 5436 5442 5449 5458 5470 5481 5491 5499 5505 5513 5521 5528 5534 5543 5553 5563 5571 5578 5585 5592 5597 5605 5611 5618 5623 5627 5632 5638 5642 5646 5650 5652 5654 5655 5657 5659 5660 5661 5663 5663 5664 5664
Wind_Speed
21 21 22 22 22 22 22 20 18 17 18 17 19 22 26 28 30 31 31 35 33 34 31 37 38 40 39 38 35 29 27 26 24 22 21 19 15 12 11 10 12 16 17 19 22 24 27 30 31 31 32 32 32 31
22 22 22 22 22 22 22 21 19 18 18 17 18 22 26 30 33 30 33 31 32 33 32 38 39 39 39 35 33 28 26 25 23 22 21 18 14 12 12 11 13 16 18 21 24 27 30 33 33 33 32 31 27 24
23 23 23 23 23 22 23 22 21 19 20 19 18 21 25 29 36 29 36 31 27 38 26 33 39 38 38 37 34 31 29 26 23 23 20 18 15 12 12 12 13 16 19 22 26 28 31 32 31 30 28 23 19 18
24 24 24 24 24 23 23 24 22 22 21 20 19 20 24 29 32 27 34 31 32 37 23 31 37 39 39 36 33 30 29 24 21 22 21 19 13 11 11 10 11 15 20 23 26 28 29 28 26 25 20 18 16 16
26 26 26 26 26 25 25 26 24 24 23 21 20 21 23 28 32 27 40 34 38 45 35 26 34 37 37 34 32 31 28 22 22 20 21 17 12 9 8 9 13 16 21 24 25 26 23 24 21 21 15 17 18 16
27 28 28 27 27 27 27 27 27 26 26 23 22 21 23 27 30 31 28 31 42 50 32 34 29 35 35 35 33 31 26 23 23 21 21 16 11 8 8 11 14 18 22 23 23 22 25 22 14 18 23 26 23 21
31 30 30 30 30 30 29 29 29 29 29 26 24 23 23 25 26 32 29 30 43 52 43 25 35 27 35 35 34 32 28 24 25 23 21 17 10 9 10 13 15 18 21 22 22 25 19 16 22 26 29 28 27 26
35 35 35 34 34 33 33 32 32 32 31 30 26 25 24 24 25 29 30 28 44 54 42 31 33 34 34 33 33 30 28 27 26 23 22 17 13 10 11 13 16 19 19 20 23 14 22 29 31 28 28 31 33 32
37 38 38 38 37 38 37 36 35 35 34 33 30 27 24 26 26 28 31 29 44 50 52 37 33 30 35 33 32 29 29 28 25 23 20 17 14 11 11 13 15 15 17 21 12 21 32 33 31 31 31 33 38 39
31 32 34 37 40 42 43 41 39 39 38 36 33 29 27 26 28 29 32 31 38 52 50 47 37 29 34 36 33 28 27 28 25 23 18 15 12 11 10 11 11 13 17 13 20 27 29 30 30 30 30 33 34 36
27 25 25 29 35 41 46 46 45 43 41 39 36 33 30 28 29 30 33 32 36 48 55 46 38 32 31 33 33 31 28 27 26 23 18 14 10 10 10 7 7 11 12 18 25 30 33 32 30 29 29 30 30 31
29 28 26 27 28 35 45 51 49 46 45 44 40 37 35 32 31 32 35 37 37 35 45 54 43 33 32 34 35 33 31 30 28 23 18 13 13 12 11 4 4 10 17 21 30 33 33 32 30 28 26 26 26 27
35 37 36 31 30 31 40 50 53 50 49 47 44 42 38 37 36 36 37 38 35 33 33 49 49 40 36 37 38 35 32 30 27 22 17 14 14 14 9 3 7 12 19 25 29 32 31 29 27 25 24 23 25 26
33 34 37 37 34 34 38 46 54 52 51 49 47 44 41 40 40 39 39 38 37 34 35 43 48 44 38 38 39 37 33 30 26 19 16 17 17 16 10 7 10 16 19 26 29 31 29 27 24 22 21 22 24 31
32 35 37 38 37 38 37 44 49 52 52 50 48 44 42 43 43 43 42 40 40 37 36 42 45 45 39 41 39 38 31 30 24 18 20 21 20 17 12 10 14 17 22 28 28 30 28 27 25 23 22 23 27 29
32 34 34 35 37 38 39 42 46 50 52 52 48 46 44 45 47 46 45 43 42 41 37 38 40 47 47 44 42 38 33 28 25 23 25 23 22 18 14 14 17 19 24 26 25 27 27 26 25 22 20 20 21 20
28 28 30 32 35 34 36 40 43 48 53 54 50 48 45 47 50 49 48 45 44 46 42 41 40 48 52 49 43 37 32 31 25 26 26 25 24 20 18 17 19 24 25 23 21 22 24 25 22 19 17 16 16 14
27 29 29 31 34 36 34 37 43 48 55 54 50 48 47 51 53 49 49 48 48 50 46 48 45 48 54 50 40 31 32 30 27 27 27 27 27 24 23 22 23 27 24 20 19 19 20 20 19 15 13 14 13 11
31 31 32 33 35 36 35 35 36 43 49 49 48 49 50 55 57 52 52 52 51 53 51 55 52 49 52 40 33 33 36 33 34 31 30 30 30 27 26 26 28 26 23 19 16 17 17 17 16 14 11 9 8 7
34 34 31 39 35 35 38 32 31 33 38 40 43 48 53 58 61 58 56 54 54 56 56 60 61 48 41 38 37 37 38 37 35 32 31 33 33 31 29 27 27 26 23 19 14 12 11 12 11 10 9 8 7 5
41 34 32 34 34 34 36 32 31 30 28 32 38 47 52 59 63 61 58 57 59 58 58 59 54 41 44 43 42 41 40 38 35 33 35 36 36 34 32 31 31 27 21 16 12 11 10 12 11 10 8 6 4 4
45 39 36 38 39 38 34 32 31 29 29 35 40 48 53 59 63 61 60 63 62 60 56 50 43 46 47 46 45 42 41 41 38 35 37 36 36 36 33 31 29 25 21 17 14 13 11 7 6 6 6 7 6 6
39 38 40 38 40 42 38 34 31 30 32 35 40 47 54 61 63 62 65 65 62 58 51 46 47 51 52 50 47 42 43 41 37 35 38 39 38 38 37 33 30 27 22 18 17 15 13 11 9 7 6 5 6 7
39 39 38 36 36 40 41 37 31 33 33 37 40 46 53 60 62 65 67 65 60 54 51 49 53 55 53 50 45 43 44 40 38 39 41 40 37 37 37 36 31 28 25 23 19 16 13 11 10 8 7 7 8 9
38 41 40 38 35 33 32 32 30 31 34 38 41 46 48 57 62 67 67 65 57 51 50 51 56 57 51 45 44 44 44 42 39 40 42 41 39 38 39 39 36 33 29 24 20 17 16 14 12 10 9 8 9 10
41 40 39 36 35 31 28 26 26 30 35 40 40 42 47 57 63 68 63 55 55 50 51 50 52 55 52 51 46 44 42 42 40 41 41 40 38 37 38 37 35 31 27 22 19 17 16 14 13 11 11 10 11 11
45 42 37 30 29 28 26 25 27 33 37 37 38 42 51 57 62 61 57 58 58 57 57 53 55 53 51 50 45 44 42 41 41 43 43 42 40 38 36 34 32 32 31 27 24 21 18 16 15 14 14 13 13 13
45 37 31 27 26 25 27 27 31 34 37 40 43 48 55 53 47 56 59 59 58 60 60 57 58 50 51 49 45 45 43 43 43 44 42 40 38 34 32 32 34 35 36 33 29 26 22 19 18 17 15 14 15 15
32 30 29 27 27 29 28 29 33 37 41 42 43 46 55 53 44 53 63 65 62 60 58 56 55 52 51 49 49 50 47 44 44 43 42 39 34 28 30 33 35 34 30 28 26 24 21 19 18 16 16 16 16 15
34 32 28 28 30 30 28 30 37 43 43 50 47 45 50 50 41 53 62 65 60 56 55 53 54 54 54 53 52 50 47 43 43 42 40 37 34 35 34 33 29 27 26 26 24 22 19 18 17 15 15 16 16 16
40 38 33 32 32 28 29 40 47 38 44 49 41 39 41 48 39 55 58 58 55 55 52 53 55 55 57 58 51 46 42 40 41 41 40 39 37 34 30 30 30 30 30 30 29 27 26 24 21 18 17 17 18 18
36 34 32 35 30 32 46 45 43 40 36 39 39 41 44 39 43 52 52 49 50 50 52 54 53 54 54 48 45 42 40 42 43 43 43 40 37 32 31 34 35 34 30 26 23 21 21 19 17 19 21 21 20 18
34 32 31 33 45 48 40 39 37 34 33 38 39 40 41 47 52 48 49 49 49 53 54 52 52 54 51 46 43 42 43 46 47 46 44 40 35 34 32 30 29 26 20 18 19 20 21 23 24 22 20 19 19 18
Wind_Direction
249 245 240 237 239 239 237 237 236 238 237 228 216 210 200 193 190 192 194 203 192 190 202 198 198 199 201 203 204 203 206 213 214 219 217 217 217 227 239 259 280 291 304 310 309 309 310 307 307 309 313 314 312 306
247 243 239 235 236 237 234 232 230 233 232 226 215 207 201 193 194 201 196 200 200 192 198 203 195 198 202 202 203 201 209 213 215 215 216 214 217 230 246 263 283 295 302 305 303 306 306 305 311 317 319 317 314 320
245 241 237 235 235 235 232 228 226 228 226 223 214 206 201 196 197 206 199 202 200 199 195 198 194 193 204 202 196 202 207 209 215 210 207 208 218 237 252 272 288 297 300 302 305 304 303 309 320 321 318 322 333 336
243 239 237 235 235 233 230 227 223 223 223 218 212 204 201 197 196 201 194 202 200 197 175 204 197 196 203 202 199 202 207 208 208 208 204 209 219 243 259 272 290 302 312 312 306 307 315 325 325 322 334 343 352 0
242 238 237 236 235 232 227 225 221 219 220 214 209 202 201 200 200 204 196 194 193 181 169 178 200 199 203 200 199 201 204 207 207 205 205 206 215 242 251 276 293 312 313 312 315 324 331 330 330 344 16 23 18 12
246 241 238 235 233 231 226 225 222 217 217 212 206 201 201 203 201 203 203 192 197 176 158 162 201 203 203 201 198 201 199 204 203 203 204 205 214 225 265 288 306 313 316 319 330 336 334 340 19 47 42 38 35 37
243 241 240 236 232 230 225 223 222 216 214 210 205 202 203 204 201 200 204 197 192 181 182 178 179 202 204 203 199 202 201 202 202 201 202 205 211 231 268 291 308 313 321 333 339 339 350 67 72 61 51 47 52 59
242 241 242 239 233 230 225 222 220 216 211 209 205 204 204 203 202 200 204 197 187 190 189 181 185 197 196 197 197 204 202 200 201 202 206 209 220 241 270 292 306 313 332 339 344 13 88 86 79 68 60 62 65 69
236 235 236 236 233 230 226 222 218 215 210 209 206 204 205 204 202 199 200 195 189 191 193 179 168 195 198 197 195 197 197 197 200 206 210 216 229 239 264 287 296 326 341 350 29 96 101 93 86 79 71 68 70 74
227 229 232 233 231 229 226 221 217 214 210 209 206 204 206 205 202 199 197 197 190 193 189 186 181 182 196 198 196 199 198 199 200 206 208 209 217 238 254 270 309 341 354 37 86 105 100 98 90 82 76 75 76 77
225 226 229 233 233 230 226 220 216 212 211 209 207 206 207 207 204 199 195 198 194 194 195 191 190 190 192 196 197 200 200 198 200 205 202 198 214 226 234 266 325 1 37 84 103 108 103 100 96 90 82 79 80 82
229 229 229 232 234 230 225 219 214 212 211 210 210 208 207 207 207 201 197 198 198 193 195 198 203 200 198 197 198 199 200 198 200 201 197 191 213 211 225 258 6 34 82 101 114 110 107 104 101 92 87 85 87 86
233 231 229 233 235 232 222 217 212 210 211 211 211 210 208 208 207 202 199 201 198 191 189 194 197 198 200 199 199 201 202 200 196 197 182 193 201 205 215 194 65 79 90 109 114 115 114 110 105 100 94 91 91 94
228 227 227 228 230 228 220 213 210 209 210 210 210 211 209 207 205 204 200 199 196 192 189 192 192 194 198 199 199 201 201 198 196 184 172 202 194 200 195 140 93 96 114 122 124 123 123 119 114 108 101 101 101 104
227 227 226 226 225 217 215 209 206 207 209 209 208 209 207 206 206 205 200 197 194 190 193 188 189 191 197 200 199 200 197 195 182 168 188 201 192 195 188 134 112 111 134 132 134 130 131 130 126 119 112 109 111 114
235 228 220 213 207 208 207 205 202 204 207 207 205 206 204 205 205 206 200 196 193 189 193 185 187 194 197 199 198 197 192 186 183 183 196 197 189 191 175 140 122 133 148 145 142 139 139 140 138 131 123 119 120 120
211 198 197 195 195 193 194 196 197 201 204 203 203 205 204 204 204 206 201 195 192 188 189 183 188 201 199 199 198 194 186 192 183 190 199 196 189 190 171 145 132 151 156 153 150 148 149 149 147 142 134 127 119 124
182 184 180 174 172 181 190 190 194 200 203 202 203 205 205 203 203 204 202 195 193 190 189 179 186 207 202 198 195 183 193 189 186 194 200 195 191 186 164 152 147 162 165 163 159 160 161 161 160 152 147 142 130 122
177 175 172 175 179 186 187 191 194 203 204 204 205 207 205 201 200 201 202 195 194 190 191 182 188 206 204 193 186 189 193 190 192 194 198 190 190 189 171 160 157 165 166 169 168 166 166 169 173 172 166 166 163 162
169 167 173 174 195 199 191 190 197 205 203 201 203 205 204 200 199 199 200 195 194 192 195 193 193 197 195 186 190 192 195 192 195 194 195 189 192 187 171 168 165 171 177 177 168 162 169 170 172 168 165 171 173 184
171 171 180 195 204 204 198 200 206 208 207 208 206 207 204 199 199 199 198 197 196 196 198 199 199 193 182 184 191 194 193 193 197 194 194 190 194 188 176 175 174 171 165 156 165 176 173 179 186 187 186 193 209 233
184 187 189 190 195 199 202 205 208 213 211 204 207 209 205 199 199 198 197 197 196 197 200 197 193 186 183 188 193 195 192 196 198 195 193 191 195 184 178 178 177 172 172 180 182 189 195 196 201 203 208 213 228 255
195 197 198 198 203 207 210 211 213 206 203 206 210 212 204 199 198 199 198 197 196 197 195 189 187 185 186 188 194 193 194 196 196 194 190 191 196 192 181 180 182 186 187 190 192 188 188 195 201 215 234 245 251 262
195 203 206 206 209 211 214 215 213 211 208 209 215 213 202 199 198 200 197 195 195 196 190 187 187 188 187 189 195 192 196 196 196 193 192 192 196 197 190 183 184 191 192 193 196 201 204 202 207 216 228 240 253 264
197 203 210 213 209 207 207 209 213 212 208 209 213 209 201 201 199 200 196 193 190 193 187 191 190 187 188 191 196 194 196 198 196 194 191 193 199 198 197 195 191 193 198 202 204 205 203 204 205 213 225 242 259 270
205 208 208 208 211 214 214 216 216 212 210 209 205 200 200 200 198 195 190 189 192 191 190 193 192 190 193 193 195 196 197 199 197 194 193 196 198 201 203 202 201 198 201 206 208 210 210 210 214 223 228 236 250 264
210 209 208 208 212 216 217 219 218 211 204 199 193 195 197 198 197 191 186 188 187 190 191 192 191 190 194 194 194 196 198 199 197 194 195 199 202 204 205 203 205 201 201 200 202 208 216 222 229 232 235 245 252 257
210 211 212 213 219 221 222 222 214 201 193 191 189 190 194 198 194 189 185 184 187 189 188 188 188 188 192 190 193 194 196 199 197 194 196 202 206 209 207 206 210 213 213 209 209 213 217 223 229 237 243 249 253 261
212 218 222 223 224 226 226 219 205 194 189 183 175 190 192 188 187 189 188 190 192 190 187 189 186 188 188 191 195 194 195 197 194 192 196 202 205 206 211 212 213 216 219 225 229 231 235 237 243 248 249 256 264 275
217 218 222 222 223 225 219 209 188 183 184 176 179 191 191 187 190 192 190 193 194 191 189 190 186 189 189 193 196 196 195 193 191 192 196 201 204 209 208 213 216 218 221 225 226 227 229 235 241 249 255 260 265 270
221 228 230 225 225 223 205 188 183 179 178 175 178 189 194 189 195 191 188 190 191 189 191 191 191 193 192 193 194 193 192 190 191 193 196 203 208 215 214 209 211 214 215 217 221 223 229 237 241 245 252 257 260 268
216 217 219 220 215 200 180 176 180 179 185 193 191 175 173 187 192 185 187 189 189 189 191 193 194 195 193 194 192 190 190 191 190 194 199 203 208 214 218 219 217 217 220 226 233 236 237 240 242 241 245 256 269 275
232 229 223 206 178 172 172 175 183 182 179 188 194 193 192 191 178 176 181 183 186 190 190 192 192 190 191 192 190 189 191 190 194 198 201 205 210 214 217 223 225 227 229 229 225 221 221 226 235 246 254 259 266 273